CW5193 New Chelsea NF CA current weather conditions

sailwx.info

Wind from 229 at 23 knots gusting 42

Air temperature 23.3° C
Dewpoint 20.5° C

Last reported at 2014-Sep-22 19:43 UTC.
Time now 2014-Sep-22 20:18 UTC

Location: N 48°02' W 053°13'.
View on Google Maps.

See reports from other nearby stations

  
Tides and Currents Weather Stations Pressure Air Temp Water Temp Dewpoint Dewpoint Depression Visibility Wind Speed Wind Dir Waves Ship Positions
date/time (UTC)wind fromknots sea level pressurealtimeterstation pressurevisibilityair tempwater tempwave heightnotes
2014-Sep-22 19:43 229 23 gusting 42 23.3
2014-Sep-22 19:33 225 19 gusting 39 23.3
2014-Sep-22 19:23 203 22 gusting 39 23.3
2014-Sep-22 19:13 227 21 gusting 35 23.3
2014-Sep-22 19:03 226 19 gusting 34 22.8
2014-Sep-22 18:53 205 20 gusting 36 22.8
2014-Sep-22 18:43 175 15 gusting 35 22.2
2014-Sep-22 18:33 207 23 gusting 32 22.2
2014-Sep-22 18:23 221 18 gusting 34 22.2
2014-Sep-22 18:13 226 18 gusting 34 22.2
2014-Sep-22 18:03 191 18 gusting 36 22.2
2014-Sep-22 17:53 222 19 gusting 33 21.7
2014-Sep-22 17:43 187 18 gusting 33 22.2
2014-Sep-22 17:33 242 22 gusting 34 21.7
2014-Sep-22 17:23 235 19 gusting 34 21.7
2014-Sep-22 17:13 209 20 gusting 34 21.7
2014-Sep-22 17:03 206 23 gusting 35 21.7
2014-Sep-22 16:53 198 24 gusting 41 22.2
2014-Sep-22 16:43 221 20 gusting 42 21.7
2014-Sep-22 16:33 196 25 gusting 34 21.7
2014-Sep-22 16:23 248 20 gusting 30 21.1
2014-Sep-22 16:13 215 24 gusting 33 21.1
2014-Sep-22 16:03 219 15 gusting 33 21.7
2014-Sep-22 15:53 280 21 gusting 38 22.2
2014-Sep-22 15:43 180 19 gusting 34 22.8
2014-Sep-22 15:33 225 22 gusting 32 23.3
2014-Sep-22 15:23 171 20 gusting 30 22.8
2014-Sep-22 15:13 214 13 gusting 34 22.8
2014-Sep-22 15:03 196 19 gusting 33 22.2
2014-Sep-22 14:53 200 14 gusting 28 22.2
2014-Sep-22 14:43 229 19 gusting 36 22.2
2014-Sep-22 14:33 210 22 gusting 33 21.7
2014-Sep-22 14:23 225 17 gusting 33 21.7
2014-Sep-22 14:13 203 18 gusting 32 22.2
2014-Sep-22 14:03 242 19 gusting 33 22.2
2014-Sep-22 13:53 207 16 gusting 30 22.2
2014-Sep-22 13:43 194 19 gusting 28 22.2
2014-Sep-22 13:33 197 17 gusting 33 22.2
2014-Sep-22 13:23 185 21 gusting 30 22.8
2014-Sep-22 13:13 202 19 gusting 30 22.2
2014-Sep-22 13:03 222 19 gusting 30 21.1
2014-Sep-22 12:53 228 19 gusting 26 21.1
2014-Sep-22 12:43 210 13 gusting 27 21.1
2014-Sep-22 12:33 205 15 gusting 28 21.1
2014-Sep-22 12:23 238 22 gusting 31 20.6
2014-Sep-22 12:13 222 13 gusting 26 20.6
2014-Sep-22 12:03 248 16 gusting 25 20.6
2014-Sep-22 11:53 215 17 gusting 25 20.0
2014-Sep-22 11:43 233 12 gusting 23 20.0
2014-Sep-22 11:33 197 13 gusting 24 20.0
2014-Sep-22 11:23 211 11 gusting 25 20.0
2014-Sep-22 11:13 229 14 gusting 25 20.0
2014-Sep-22 11:03 233 16 gusting 23 20.0
2014-Sep-22 10:53 227 14 gusting 21 20.0
2014-Sep-22 10:43 240 14 gusting 21 19.4
2014-Sep-22 10:33 226 13 gusting 22 19.4
2014-Sep-22 10:23 219 13 gusting 18 19.4
2014-Sep-22 10:13 206 10 gusting 19 18.9
2014-Sep-22 10:03 224 13 gusting 21 18.9
2014-Sep-22 09:53 202 7 gusting 16 18.9
2014-Sep-22 09:43 207 11 gusting 19 18.9
2014-Sep-22 09:33 229 11 gusting 15 18.9
2014-Sep-22 09:23 245 10 gusting 19 18.9
2014-Sep-22 09:13 196 12 gusting 19 19.4
2014-Sep-22 09:03 245 10 gusting 17 19.4
2014-Sep-22 08:53 227 8 gusting 18 19.4
2014-Sep-22 08:43 238 6 gusting 18 19.4
2014-Sep-22 08:33 245 1 gusting 8 18.9
2014-Sep-22 08:23 187 4 gusting 12 18.9
2014-Sep-22 08:13 218 6 gusting 14 18.9
2014-Sep-22 08:03 171 7 gusting 11 18.9
2014-Sep-22 07:53 202 6 gusting 11 18.9
2014-Sep-22 07:43 196 4 gusting 11 18.9
2014-Sep-22 07:33 195 2 gusting 14 18.9
2014-Sep-22 07:23 236 4 gusting 13 18.3
2014-Sep-22 07:13 226 5 gusting 11 18.3
2014-Sep-22 07:03 225 9 gusting 17 18.3
2014-Sep-22 06:53 256 7 gusting 16 18.3
2014-Sep-22 06:43 240 13 gusting 23 18.3
2014-Sep-22 06:33 234 14 gusting 22 18.3
2014-Sep-22 06:23 229 11 gusting 24 18.3
2014-Sep-22 06:13 240 10 gusting 19 18.3
2014-Sep-22 06:03 239 13 gusting 20 18.3
2014-Sep-22 05:53 242 13 gusting 22 18.3
2014-Sep-22 05:43 286 11 gusting 20 18.3
2014-Sep-22 05:33 256 14 gusting 19 17.8
2014-Sep-22 05:23 265 11 gusting 27 17.8
2014-Sep-22 05:13 221 12 gusting 18 17.8
2014-Sep-22 05:03 230 11 gusting 23 17.8
2014-Sep-22 04:53 234 12 gusting 21 17.8
2014-Sep-22 04:43 245 10 gusting 17 17.8
2014-Sep-22 04:33 229 10 gusting 19 17.8
2014-Sep-22 04:23 228 6 gusting 20 17.8
2014-Sep-22 04:13 259 10 gusting 20 17.8
2014-Sep-22 04:03 221 13 gusting 21 17.8
2014-Sep-22 03:53 232 9 gusting 21 17.8
2014-Sep-22 03:43 246 16 gusting 22 17.8
2014-Sep-22 03:33 245 11 gusting 23 17.2
2014-Sep-22 03:23 215 9 gusting 21 17.2
2014-Sep-22 03:13 279 7 gusting 23 17.2
2014-Sep-22 03:03 250 8 gusting 22 17.2
2014-Sep-22 02:53 211 12 gusting 20 17.2
2014-Sep-22 02:43 237 13 gusting 25 17.2
2014-Sep-22 02:33 222 12 gusting 23 16.7
2014-Sep-22 02:13 229 12 gusting 22 16.7
2014-Sep-22 02:03 242 11 gusting 19 16.7
2014-Sep-22 01:53 225 12 gusting 25 16.7
2014-Sep-22 01:43 217 14 gusting 23 16.7
2014-Sep-22 01:33 271 9 gusting 24 16.7
2014-Sep-22 01:23 232 13 gusting 25 16.7
2014-Sep-22 01:13 225 16 gusting 27 16.7
2014-Sep-22 01:03 273 17 gusting 28 16.7
2014-Sep-22 00:53 260 12 gusting 25 16.7
2014-Sep-22 00:43 229 15 gusting 23 16.1
2014-Sep-22 00:33 231 15 gusting 23 16.1
2014-Sep-22 00:23 264 13 gusting 27 16.1
2014-Sep-22 00:13 219 15 gusting 26 16.1
2014-Sep-22 00:03 267 17 gusting 26 16.1
2014-Sep-21 23:53 249 14 gusting 21 16.1
2014-Sep-21 23:43 233 15 gusting 25 16.1
2014-Sep-21 23:33 227 12 gusting 22 16.1
2014-Sep-21 23:23 250 11 gusting 19 16.1
2014-Sep-21 23:13 265 11 gusting 19 16.1
2014-Sep-21 23:03 228 9 gusting 19 16.1
2014-Sep-21 22:53 246 9 gusting 21 16.1
2014-Sep-21 22:43 246 13 gusting 20 16.1
2014-Sep-21 22:33 190 14 gusting 21 16.7
2014-Sep-21 22:23 230 12 gusting 22 16.1
2014-Sep-21 22:13 252 13 gusting 24 16.7
2014-Sep-21 22:03 240 15 gusting 26 16.7
2014-Sep-21 21:53 232 15 gusting 26 16.7
2014-Sep-21 21:43 250 14 gusting 26 16.7
2014-Sep-21 21:33 246 12 gusting 28 17.2
2014-Sep-21 21:23 254 19 gusting 26 17.2
2014-Sep-21 21:13 242 16 gusting 25 17.2
2014-Sep-21 21:03 254 13 gusting 27 17.2
2014-Sep-21 20:53 258 17 gusting 26 17.8
2014-Sep-21 20:43 254 16 gusting 26 18.3
2014-Sep-21 20:33 250 15 gusting 27 18.3
2014-Sep-21 20:23 236 15 gusting 27 18.3
2014-Sep-21 20:13 234 17 gusting 26 18.9
2014-Sep-21 20:03 234 12 gusting 27 18.9
2014-Sep-21 19:53 230 14 gusting 28 18.9
2014-Sep-21 19:43 215 15 gusting 26 18.9
2014-Sep-21 19:33 225 12 gusting 32 18.9
2014-Sep-21 19:23 214 19 gusting 29 18.9
2014-Sep-21 19:13 218 19 gusting 36 18.9
2014-Sep-21 19:03 232 13 gusting 31 19.4
2014-Sep-21 18:53 197 28 gusting 43 19.4
2014-Sep-21 18:43 244 16 gusting 36 20.0
2014-Sep-21 18:33 254 20 gusting 34 20.0
2014-Sep-21 18:23 259 17 gusting 34 19.4
2014-Sep-21 18:13 257 19 gusting 29 19.4
2014-Sep-21 18:03 274 18 gusting 34 19.4
2014-Sep-21 17:53 221 19 gusting 30 19.4
2014-Sep-21 17:43 236 16 gusting 28 19.4
2014-Sep-21 17:33 238 21 gusting 30 18.9
2014-Sep-21 17:23 269 20 gusting 30 19.4
2014-Sep-21 17:13 233 17 gusting 28 18.9
2014-Sep-21 17:03 247 15 gusting 32 18.9
2014-Sep-21 16:53 253 17 gusting 31 18.9
2014-Sep-21 16:43 254 14 gusting 26 18.9
2014-Sep-21 16:33 203 12 gusting 26 18.9
2014-Sep-21 16:23 257 17 gusting 26 18.9
2014-Sep-21 16:13 230 16 gusting 28 18.9
2014-Sep-21 16:03 211 12 gusting 28 18.9
2014-Sep-21 15:53 240 15 gusting 26 18.3
2014-Sep-21 15:43 250 13 gusting 24 18.9
2014-Sep-21 15:33 249 13 gusting 27 18.3
2014-Sep-21 15:23 260 18 gusting 28 18.3
2014-Sep-21 15:13 268 12 gusting 21 17.8
2014-Sep-21 15:03 277 12 gusting 24 17.2
2014-Sep-21 14:53 228 15 gusting 26 17.2
2014-Sep-21 14:43 271 12 gusting 26 17.2
2014-Sep-21 14:33 256 15 gusting 25 16.7
2014-Sep-21 14:23 224 12 gusting 25 16.7
2014-Sep-21 14:13 254 16 gusting 26 16.7
2014-Sep-21 14:03 252 12 gusting 26 16.1
2014-Sep-21 13:53 277 16 gusting 26 16.1
2014-Sep-21 13:43 259 14 gusting 26 16.1
2014-Sep-21 13:33 215 11 gusting 25 16.1
2014-Sep-21 13:23 250 11 gusting 26 16.1
2014-Sep-21 13:13 240 14 gusting 26 16.1
2014-Sep-21 13:03 247 13 gusting 26 16.1
2014-Sep-21 12:53 257 16 gusting 24 16.1
2014-Sep-21 12:43 242 13 gusting 24 16.1
2014-Sep-21 12:33 227 13 gusting 24 16.1
2014-Sep-21 12:23 260 12 gusting 25 15.6
2014-Sep-21 12:13 238 14 gusting 23 15.6
2014-Sep-21 12:03 222 13 gusting 25 15.6
2014-Sep-21 11:53 245 12 gusting 21 15.6
2014-Sep-21 11:43 256 13 gusting 23 15.0
2014-Sep-21 11:33 243 9 gusting 26 15.0
2014-Sep-21 11:23 252 11 gusting 21 15.0
2014-Sep-21 11:13 230 10 gusting 27 14.4
2014-Sep-21 11:03 277 12 gusting 19 14.4
2014-Sep-21 10:53 269 12 gusting 20 14.4
2014-Sep-21 10:43 244 12 gusting 20 14.4
2014-Sep-21 10:33 240 11 gusting 22 14.4
2014-Sep-21 10:23 262 10 gusting 26 14.4
2014-Sep-21 10:13 287 15 gusting 26 14.4
2014-Sep-21 10:03 230 11 gusting 20 15.0
2014-Sep-21 09:53 267 14 gusting 26 15.0
2014-Sep-21 09:43 249 13 gusting 22 15.0
2014-Sep-21 09:33 210 13 gusting 26 15.0
2014-Sep-21 09:23 225 13 gusting 26 15.0
2014-Sep-21 09:13 254 13 gusting 22 15.0
2014-Sep-21 09:03 245 13 gusting 21 14.4
2014-Sep-21 08:53 230 12 gusting 19 13.9
2014-Sep-21 08:43 265 10 gusting 18 14.4
2014-Sep-21 08:33 233 13 gusting 22 14.4
2014-Sep-21 08:23 268 13 gusting 25 15.0
2014-Sep-21 08:13 196 12 gusting 20 15.0
2014-Sep-21 08:03 290 10 gusting 18 15.0
2014-Sep-21 07:53 207 12 gusting 20 15.0
2014-Sep-21 07:43 234 13 gusting 19 15.0
2014-Sep-21 07:33 257 8 gusting 23 15.0
2014-Sep-21 07:23 221 12 gusting 20 15.0
2014-Sep-21 07:13 254 13 gusting 27 14.4
2014-Sep-21 07:03 252 13 gusting 22 14.4
2014-Sep-21 06:53 244 12 gusting 23 14.4
2014-Sep-21 06:43 265 12 gusting 26 14.4
2014-Sep-21 06:33 206 11 gusting 25 14.4
2014-Sep-21 06:23 232 13 gusting 26 14.4
2014-Sep-21 06:13 252 15 gusting 26 14.4
2014-Sep-21 06:03 252 19 gusting 27 14.4
2014-Sep-21 05:53 249 15 gusting 30 14.4
2014-Sep-21 05:43 223 14 gusting 29 14.4
2014-Sep-21 05:33 207 15 gusting 30 14.4
2014-Sep-21 05:23 264 10 gusting 25 14.4
2014-Sep-21 05:13 225 17 gusting 26 13.9
2014-Sep-21 05:03 236 13 gusting 21 13.9
2014-Sep-21 04:53 248 15 gusting 25 13.9
2014-Sep-21 04:43 245 13 gusting 24 13.9
2014-Sep-21 04:33 239 13 gusting 25 13.9
2014-Sep-21 04:23 260 14 gusting 28 13.9
2014-Sep-21 04:13 275 15 gusting 28 13.9
2014-Sep-21 04:03 205 16 gusting 27 13.9
2014-Sep-21 03:53 224 15 gusting 24 13.9
2014-Sep-21 03:43 281 15 gusting 33 13.9
2014-Sep-21 03:33 241 15 gusting 25 13.3
2014-Sep-21 03:23 239 15 gusting 25 13.3
2014-Sep-21 03:13 211 14 gusting 26 13.3
2014-Sep-21 03:03 257 14 gusting 29 13.3
2014-Sep-21 02:53 266 13 gusting 29 13.3
2014-Sep-21 02:43 241 16 gusting 28 13.3
2014-Sep-21 02:33 259 14 gusting 24 13.3
2014-Sep-21 02:23 259 16 gusting 28 13.3
2014-Sep-21 02:13 224 15 gusting 26 13.3
2014-Sep-21 02:03 250 15 gusting 28 13.3
2014-Sep-21 01:53 250 14 gusting 29 13.3
2014-Sep-21 01:43 254 15 gusting 30 13.3
2014-Sep-21 01:33 257 13 gusting 31 13.3
2014-Sep-21 01:23 245 13 gusting 31 13.3
2014-Sep-21 01:13 274 19 gusting 31 13.3
2014-Sep-21 01:03 273 16 gusting 31 13.3
2014-Sep-21 00:53 250 15 gusting 33 13.3
2014-Sep-21 00:43 261 19 gusting 35 12.8
2014-Sep-21 00:33 277 14 gusting 33 12.8
2014-Sep-21 00:23 257 13 gusting 26 12.8
2014-Sep-21 00:13 272 17 gusting 33 12.8
2014-Sep-21 00:03 245 13 gusting 31 12.8
2014-Sep-20 23:53 263 19 gusting 31 12.8
2014-Sep-20 23:43 240 21 gusting 33 12.8
2014-Sep-20 23:33 254 19 gusting 29 12.8
2014-Sep-20 23:23 237 17 gusting 25 12.8
2014-Sep-20 23:13 360 18 gusting 28 12.8
2014-Sep-20 23:03 218 12 gusting 29 12.8
2014-Sep-20 22:53 267 15 gusting 28 12.8
2014-Sep-20 22:43 259 16 gusting 28 12.8
2014-Sep-20 22:33 257 15 gusting 32 12.8
2014-Sep-20 22:23 261 13 gusting 28 12.8
2014-Sep-20 22:13 252 13 gusting 33 12.8
2014-Sep-20 22:03 263 16 gusting 28 12.8
2014-Sep-20 21:53 234 13 gusting 28 12.8
2014-Sep-20 21:43 267 14 gusting 24 12.8
2014-Sep-20 21:33 284 18 gusting 29 12.8
2014-Sep-20 21:23 232 11 gusting 26 12.8
2014-Sep-20 21:13 277 18 gusting 32 12.8
2014-Sep-20 21:03 209 14 gusting 27 12.8
2014-Sep-20 20:53 250 19 gusting 33 12.8
2014-Sep-20 20:43 253 19 gusting 25 13.3
2014-Sep-20 20:33 246 10 gusting 21 13.3
2014-Sep-20 20:23 256 10 gusting 20 12.8
2014-Sep-20 20:13 268 12 gusting 24 13.3
2014-Sep-20 20:03 213 10 gusting 28 13.3